Vorticity
5 6 4 1 7 10 12 9 7 6 4 10 14 12 10 4 6 6 9 11 14 5 8 7 11 13 13 13 11 10 8 7 9 8 8 5 7 3 6 8 -3 19 8 2 8 4 6 6 6 10 8 2 4 10
5 6 6 11 7 1 11 4 7 8 12 13 14 8 8 11 13 15 16 10 11 10 15 13 9 10 12 9 10 10 10 8 7 7 8 7 5 6 5 6 7 5 11 9 6 8 6 3 9 7 11 9 10 6
9 7 5 7 12 15 8 12 10 10 5 5 9 9 8 9 9 9 11 11 9 8 9 12 8 11 14 12 11 12 12 10 9 9 10 9 6 7 6 5 5 4 7 7 3 7 5 4 5 4 14 12 8 4
9 13 12 3 2 6 4 4 6 8 9 9 7 13 9 8 9 8 8 11 8 8 6 11 12 10 9 10 9 10 10 9 10 9 10 12 12 11 10 6 7 4 7 6 6 7 8 8 5 7 6 7 6 7
11 13 20 16 11 7 10 14 8 2 10 12 9 9 10 10 11 12 14 13 11 13 11 10 15 12 12 11 8 9 11 8 10 10 6 8 9 8 10 11 11 5 3 7 7 6 4 7 4 6 9 -0 11 15
7 7 13 15 7 7 4 4 2 6 11 10 12 13 15 14 12 12 11 4 16 15 16 5 2 -1 3 16 11 14 14 14 15 11 4 4 1 5 4 9 5 5 7 11 5 6 7 7 6 4 9 7 21 5
8 -0 5 9 10 8 9 13 13 12 13 12 13 12 8 8 8 9 3 3 -2 -1 9 7 8 5 -7 4 21 26 24 24 19 14 15 20 13 20 14 7 -8 1 7 11 12 7 6 8 6 8 11 9 5 2
9 5 6 7 5 9 16 8 11 8 10 10 10 10 8 7 9 2 15 10 15 8 9 15 11 20 21 13 22 42 23 33 29 39 35 32 26 24 14 11 17 8 3 2 18 10 7 7 10 8 9 5 6 2
17 15 12 10 13 9 9 12 12 14 12 11 9 8 3 9 13 12 18 22 35 16 18 34 46 48 51 46 29 17 10 8 12 23 20 7 18 7 23 37 19 18 13 11 16 8 8 8 10 11 6 4 3 5
12 14 16 16 14 12 13 12 10 9 7 7 8 13 13 20 26 26 39 37 27 22 41 60 19 13 6 3 7 7 22 9 21 26 24 10 12 23 20 40 43 32 19 11 11 14 12 12 12 12 2 6 2 8
10 9 9 10 10 11 9 8 10 10 11 13 14 24 34 27 39 36 43 17 6 9 14 -0 14 26 20 31 18 19 27 8 0 7 9 21 38 59 49 23 17 25 36 22 28 16 10 13 11 15 7 2 3 4
11 11 10 9 10 11 13 13 14 21 20 25 22 34 33 29 34 35 28 3 8 6 -11 36 31 20 10 6 25 4 -3 -1 13 9 6 40 16 5 17 38 29 21 24 24 36 24 13 10 9 15 2 14 13 3
10 9 13 13 17 19 18 24 26 28 30 29 28 27 22 16 26 19 5 7 9 1 11 20 3 7 10 17 15 -20 1 6 16 18 7 -3 7 -12 11 2 8 23 41 41 49 22 12 16 12 6 -1 33 -1 1
18 17 16 18 22 26 26 23 21 20 20 15 14 17 17 18 14 13 7 4 18 23 22 3 -3 6 14 21 7 6 30 27 12 14 13 6 16 54 12 -2 41 62 29 42 26 15 9 17 4 15 -17 13 23 -1
19 19 21 29 23 18 19 15 14 13 13 14 13 19 21 19 9 20 4 5 3 -1 4 4 10 8 8 5 4 16 27 8 -1 1 15 13 29 -11 21 41 61 20 15 29 36 20 8 14 6 30 10 -13 10 6
20 21 20 14 15 15 13 13 14 15 12 15 15 15 20 22 15 7 5 0 10 -3 23 16 9 11 6 9 8 16 12 17 25 39 37 29 39 18 27 24 7 7 20 34 32 30 15 14 4 6 7 26 24 1
16 15 15 16 15 14 14 14 14 13 12 14 17 14 28 19 18 8 1 0 1 -2 21 14 11 9 21 19 23 6 -0 37 8 14 27 41 23 21 33 13 15 21 2 2 23 -4 13 7 25 -1 -10 -8 15 19
13 13 15 15 14 15 14 13 11 10 15 20 16 24 20 17 18 12 2 5 -7 19 30 33 33 29 16 0 1 30 31 11 3 2 8 9 9 31 33 13 -2 37 18 -7 21 2 3 6 11 24 22 19 12 10
12 12 13 14 15 14 15 12 11 10 17 16 19 19 21 9 23 10 3 9 24 27 7 9 33 1 4 16 26 -2 1 4 4 7 10 8 10 12 12 12 13 12 13 8 10 16 15 13 15 15 12 7 6 7
12 12 12 13 14 14 17 13 10 12 15 18 15 15 18 7 9 20 10 6 3 24 -1 0 -8 29 13 4 2 5 9 11 11 11 9 6 4 4 5 6 6 8 10 11 11 13 11 8 7 5 5 7 8 9
10 12 11 10 11 12 15 14 15 11 15 19 14 18 16 12 -0 15 24 7 5 3 37 22 22 35 -1 3 7 7 11 9 5 4 5 5 8 8 7 7 9 12 13 12 10 10 11 12 11 11 11 11 12 11
6 9 12 13 11 12 12 12 14 12 10 18 17 18 16 14 10 6 19 11 11 18 15 18 29 8 -5 5 7 7 6 1 -0 0 3 7 3 3 7 5 5 5 8 7 7 9 10 10 9 9 9 9 9 9
2 5 12 14 12 10 15 12 11 11 11 10 17 18 20 14 13 7 12 11 11 9 7 10 8 2 0 4 1 3 2 0 2 6 3 1 4 4 7 9 11 10 10 5 6 4 5 6 7 7 7 9 9 9
4 8 15 16 15 13 10 13 13 11 11 10 9 15 18 20 19 13 8 6 10 7 6 4 2 4 6 4 2 3 -1 -1 6 7 7 8 8 5 7 7 8 10 7 8 8 9 9 9 9 9 9 8 9 9
10 14 14 18 19 17 14 12 12 12 12 11 10 10 9 14 17 17 16 17 5 4 3 3 3 5 4 4 2 -0 3 4 3 4 6 6 7 8 8 9 9 9 10 10 10 10 9 10 9 9 11 11 12 13
17 19 17 20 20 18 20 17 16 15 11 11 11 11 9 10 10 12 16 18 20 19 19 16 14 12 10 8 9 9 7 6 6 7 8 9 10 10 10 10 12 11 10 9 10 10 10 11 11 10 10 10 9 9
19 19 19 19 18 19 19 19 17 17 19 17 13 11 12 11 10 11 10 11 10 12 14 15 15 16 15 15 16 16 16 16 15 14 14 13 13 13 12 13 14 13 13 12 12 12 11 11 11 11 11 13 13 14
20 17 21 19 24 25 29 26 20 17 18 20 19 18 14 12 14 14 12 13 12 12 11 11 11 11 12 13 13 13 13 13 13 13 13 13 12 13 13 12 12 12 11 12 12 13 13 14 15 17 18 18 20 23
10 8 8 11 9 11 16 20 20 20 16 17 17 18 21 21 20 18 16 15 15 15 15 13 13 14 14 13 14 14 14 14 13 13 12 13 13 14 14 14 14 16 18 19 20 20 20 23 23 26 25 22 19 16
16 19 22 21 15 6 5 9 11 17 27 26 25 27 25 23 21 21 23 23 21 18 17 17 16 16 15 15 14 16 15 15 16 15 16 17 19 20 20 18 19 19 19 20 19 18 18 17 16 16 14 13 12 12
10 11 11 15 21 28 26 11 3 4 7 15 23 26 31 29 26 22 20 20 20 20 20 20 20 19 18 19 18 18 19 19 21 21 20 17 14 14 16 16 15 14 15 16 17 18 18 18 18 18 19 20 22 23
3 0 -1 3 3 5 10 20 23 20 8 2 2 6 12 15 17 17 18 19 21 22 20 18 18 20 19 19 18 17 16 13 9 11 13 13 13 13 14 15 19 20 21 21 16 15 16 16 18 20 17 17 16 14
2 2 2 1 0 1 1 4 7 9 20 18 14 10 6 5 3 5 8 13 14 12 11 10 10 7 9 13 15 12 11 12 10 11 12 12 15 18 18 15 15 17 17 15 16 17 14 16 18 15 16 13 11 12
Height
5620 5621 5622 5623 5623 5622 5621 5621 5620 5621 5621 5619 5619 5618 5616 5615 5614 5615 5614 5609 5610 5608 5609 5609 5608 5609 5609 5609 5611 5613 5615 5616 5615 5616 5618 5619 5621 5622 5624 5629 5629 5630 5630 5631 5632 5630 5632 5631 5630 5629 5627 5626 5625 5623
5607 5607 5608 5608 5608 5608 5608 5607 5607 5606 5605 5604 5603 5602 5601 5600 5598 5598 5598 5592 5592 5592 5596 5595 5595 5595 5597 5596 5596 5597 5599 5599 5601 5602 5604 5605 5609 5608 5612 5615 5620 5621 5623 5622 5625 5626 5625 5624 5625 5624 5622 5621 5621 5621
5593 5594 5595 5594 5594 5594 5593 5592 5592 5591 5591 5589 5589 5588 5586 5583 5582 5581 5580 5575 5573 5577 5579 5581 5584 5583 5582 5580 5577 5581 5583 5583 5584 5584 5587 5589 5592 5596 5598 5603 5606 5610 5612 5612 5615 5619 5618 5617 5618 5619 5617 5616 5616 5617
5579 5580 5581 5580 5579 5578 5578 5577 5576 5574 5575 5575 5574 5572 5570 5566 5564 5564 5563 5559 5556 5559 5564 5569 5567 5566 5566 5565 5563 5562 5565 5563 5566 5567 5568 5575 5580 5582 5585 5587 5592 5598 5601 5604 5606 5610 5611 5611 5611 5612 5613 5611 5611 5611
5562 5563 5564 5563 5563 5562 5562 5560 5559 5559 5559 5559 5558 5556 5554 5550 5546 5546 5546 5544 5541 5542 5547 5549 5552 5555 5551 5549 5548 5545 5545 5545 5545 5547 5551 5558 5562 5564 5569 5572 5579 5584 5589 5593 5597 5598 5599 5603 5604 5604 5606 5606 5605 5605
5548 5548 5548 5547 5546 5547 5546 5544 5543 5544 5544 5543 5542 5541 5538 5534 5531 5530 5531 5528 5522 5522 5527 5534 5538 5540 5535 5529 5530 5526 5524 5524 5525 5527 5534 5538 5543 5540 5545 5556 5568 5570 5574 5578 5583 5586 5589 5592 5594 5595 5597 5599 5601 5598
5534 5534 5531 5530 5530 5530 5529 5528 5528 5528 5527 5526 5525 5524 5522 5518 5516 5515 5516 5509 5502 5500 5506 5514 5519 5522 5518 5509 5506 5504 5499 5501 5503 5507 5513 5517 5524 5513 5522 5538 5560 5555 5558 5563 5568 5573 5578 5580 5584 5587 5588 5590 5593 5594
5518 5516 5515 5515 5515 5515 5514 5513 5512 5512 5510 5509 5509 5509 5506 5502 5500 5501 5492 5485 5481 5480 5482 5491 5498 5497 5494 5487 5485 5483 5480 5478 5480 5484 5491 5494 5493 5488 5489 5537 5535 5536 5540 5545 5551 5556 5561 5566 5571 5576 5580 5581 5583 5586
5501 5501 5501 5500 5499 5499 5498 5498 5495 5495 5494 5494 5492 5491 5490 5485 5483 5481 5473 5466 5460 5459 5461 5468 5471 5472 5471 5468 5468 5469 5468 5468 5469 5471 5475 5471 5473 5462 5494 5508 5505 5512 5518 5525 5531 5538 5546 5553 5558 5562 5569 5572 5573 5577
5488 5488 5486 5485 5484 5483 5483 5480 5478 5478 5477 5476 5474 5472 5471 5466 5462 5460 5454 5450 5446 5444 5448 5456 5457 5458 5458 5458 5457 5458 5457 5458 5458 5462 5460 5456 5457 5468 5474 5482 5484 5487 5493 5499 5508 5520 5530 5538 5545 5551 5557 5562 5564 5568
5473 5472 5472 5470 5470 5468 5464 5462 5461 5460 5459 5456 5455 5452 5449 5445 5444 5440 5441 5441 5440 5440 5447 5450 5450 5449 5449 5450 5450 5450 5449 5449 5448 5451 5445 5444 5449 5458 5454 5453 5458 5464 5469 5477 5490 5500 5511 5522 5530 5537 5544 5550 5554 5557
5460 5459 5457 5456 5453 5450 5447 5445 5444 5443 5439 5438 5436 5434 5433 5430 5430 5431 5434 5436 5437 5439 5441 5442 5443 5443 5444 5444 5446 5446 5444 5443 5441 5440 5437 5436 5443 5444 5443 5444 5445 5447 5448 5457 5470 5483 5494 5506 5516 5525 5532 5537 5543 5547
5444 5443 5441 5439 5436 5434 5432 5431 5428 5426 5424 5423 5421 5423 5422 5422 5423 5426 5427 5431 5434 5436 5438 5439 5440 5440 5440 5441 5440 5439 5437 5435 5434 5431 5431 5435 5436 5435 5434 5435 5435 5435 5436 5443 5454 5470 5481 5494 5503 5513 5521 5526 5531 5536
5428 5426 5424 5423 5422 5421 5420 5418 5416 5415 5415 5414 5413 5414 5414 5415 5416 5420 5423 5428 5431 5433 5434 5436 5436 5437 5437 5437 5436 5434 5434 5431 5427 5426 5428 5426 5424 5424 5422 5421 5420 5422 5428 5435 5448 5459 5471 5483 5494 5503 5509 5516 5521 5525
5414 5413 5412 5412 5411 5411 5410 5409 5408 5407 5407 5406 5406 5405 5407 5410 5412 5416 5420 5424 5427 5429 5431 5432 5432 5433 5434 5433 5432 5431 5429 5427 5426 5424 5420 5416 5416 5417 5417 5416 5415 5421 5427 5436 5445 5456 5467 5478 5488 5495 5502 5508 5513 5517
5403 5403 5403 5403 5403 5403 5402 5401 5400 5400 5399 5399 5400 5399 5401 5404 5408 5411 5415 5419 5422 5424 5425 5425 5426 5427 5428 5428 5428 5429 5429 5428 5424 5419 5416 5412 5410 5413 5415 5418 5420 5425 5430 5438 5447 5457 5467 5476 5482 5489 5496 5500 5504 5507
5396 5396 5396 5395 5395 5395 5395 5394 5394 5394 5394 5393 5392 5392 5395 5399 5402 5406 5410 5414 5417 5418 5419 5419 5419 5421 5424 5425 5427 5427 5427 5428 5425 5422 5417 5413 5413 5415 5417 5420 5424 5429 5436 5444 5451 5459 5466 5472 5478 5484 5489 5493 5496 5499
5390 5390 5389 5388 5388 5388 5388 5388 5389 5389 5388 5387 5387 5389 5391 5395 5398 5402 5405 5409 5411 5413 5413 5414 5416 5418 5422 5424 5427 5428 5428 5428 5427 5425 5423 5421 5420 5421 5423 5428 5431 5435 5442 5447 5453 5459 5465 5470 5475 5480 5483 5486 5488 5491
5384 5384 5383 5383 5383 5383 5383 5384 5384 5384 5383 5382 5383 5385 5388 5391 5394 5398 5402 5405 5407 5409 5412 5413 5416 5419 5422 5423 5427 5428 5429 5429 5429 5428 5428 5428 5428 5430 5431 5434 5437 5441 5445 5449 5453 5458 5462 5466 5470 5473 5476 5479 5480 5481
5379 5379 5379 5378 5378 5378 5378 5379 5379 5379 5379 5379 5380 5383 5385 5388 5390 5394 5398 5401 5404 5407 5409 5412 5414 5418 5420 5423 5425 5427 5428 5428 5429 5429 5430 5431 5432 5433 5435 5437 5440 5443 5446 5449 5453 5456 5459 5462 5464 5467 5469 5470 5471 5472
5375 5374 5374 5374 5373 5374 5374 5374 5374 5375 5375 5375 5377 5379 5382 5385 5387 5390 5394 5397 5401 5403 5406 5409 5413 5415 5417 5419 5422 5424 5426 5427 5429 5430 5431 5432 5434 5435 5437 5439 5441 5443 5446 5448 5451 5453 5455 5457 5459 5460 5461 5462 5462 5463
5370 5369 5369 5369 5369 5369 5370 5370 5371 5371 5372 5372 5374 5376 5379 5381 5384 5387 5390 5393 5396 5400 5403 5405 5409 5412 5414 5417 5419 5421 5423 5426 5428 5429 5431 5432 5433 5435 5436 5438 5439 5441 5442 5444 5446 5447 5449 5450 5451 5452 5452 5452 5453 5452
5365 5365 5364 5364 5364 5364 5366 5366 5366 5367 5368 5369 5370 5372 5375 5378 5381 5384 5387 5389 5393 5396 5400 5403 5406 5409 5411 5413 5416 5417 5419 5422 5424 5426 5428 5429 5430 5432 5433 5434 5435 5436 5437 5438 5439 5440 5441 5442 5442 5442 5442 5442 5442 5441
5360 5360 5359 5358 5359 5359 5360 5360 5361 5363 5364 5365 5366 5368 5371 5373 5376 5379 5381 5385 5388 5390 5394 5397 5400 5403 5405 5408 5409 5411 5414 5417 5419 5421 5422 5423 5424 5425 5427 5428 5429 5429 5430 5431 5431 5432 5432 5432 5432 5432 5431 5431 5430 5429
5354 5354 5353 5352 5352 5353 5353 5354 5355 5357 5359 5361 5362 5364 5366 5369 5371 5374 5376 5379 5382 5385 5388 5391 5394 5396 5398 5400 5403 5406 5408 5410 5412 5414 5415 5415 5416 5417 5418 5419 5420 5421 5421 5422 5422 5422 5421 5421 5420 5419 5418 5418 5418 5417
5347 5347 5347 5346 5346 5346 5347 5348 5349 5351 5353 5355 5357 5359 5361 5364 5367 5369 5372 5374 5377 5379 5382 5384 5387 5389 5391 5393 5396 5398 5400 5402 5403 5404 5405 5406 5408 5408 5408 5409 5410 5410 5410 5410 5410 5410 5409 5408 5408 5407 5406 5405 5405 5403
5342 5341 5341 5341 5341 5341 5342 5343 5344 5345 5347 5349 5351 5353 5355 5357 5360 5363 5366 5368 5370 5372 5374 5376 5379 5381 5383 5386 5388 5390 5391 5393 5394 5395 5396 5397 5397 5398 5398 5399 5399 5399 5398 5398 5398 5398 5397 5397 5396 5394 5393 5391 5390 5388
5340 5340 5340 5340 5339 5339 5339 5339 5340 5342 5343 5344 5346 5347 5349 5351 5354 5356 5358 5361 5363 5366 5369 5371 5372 5374 5376 5378 5380 5381 5383 5384 5385 5386 5386 5387 5388 5388 5388 5388 5388 5388 5388 5387 5387 5385 5385 5384 5384 5382 5380 5378 5377 5376
5340 5341 5341 5340 5340 5340 5340 5340 5340 5340 5341 5341 5342 5343 5344 5345 5347 5349 5351 5354 5356 5359 5361 5364 5366 5368 5370 5371 5373 5374 5375 5377 5378 5379 5379 5379 5379 5380 5379 5379 5378 5378 5377 5377 5376 5375 5374 5373 5372 5371 5370 5369 5368 5366
5340 5341 5341 5341 5341 5341 5342 5342 5341 5341 5340 5340 5339 5339 5339 5341 5342 5344 5346 5348 5350 5352 5355 5357 5359 5360 5362 5364 5366 5367 5369 5370 5370 5371 5372 5372 5372 5371 5371 5370 5370 5369 5368 5368 5367 5367 5366 5365 5365 5364 5363 5361 5360 5358
5342 5343 5343 5343 5343 5343 5343 5343 5343 5343 5342 5341 5340 5339 5339 5340 5341 5342 5344 5346 5347 5349 5351 5353 5355 5357 5358 5360 5361 5363 5364 5365 5365 5366 5366 5366 5366 5366 5365 5365 5364 5363 5362 5362 5361 5360 5359 5358 5357 5356 5355 5354 5353 5352
5344 5345 5345 5345 5346 5346 5345 5345 5344 5344 5344 5344 5344 5344 5344 5344 5344 5344 5345 5346 5347 5348 5350 5351 5353 5354 5356 5357 5359 5360 5361 5362 5363 5364 5364 5364 5363 5362 5361 5360 5359 5358 5357 5356 5355 5354 5353 5352 5351 5350 5350 5349 5349 5348
5344 5345 5345 5346 5346 5346 5346 5346 5346 5346 5345 5345 5344 5345 5345 5346 5346 5347 5347 5348 5348 5349 5350 5352 5353 5354 5355 5356 5358 5359 5360 5361 5361 5361 5361 5361 5360 5358 5357 5355 5354 5354 5353 5352 5351 5350 5349 5348 5348 5347 5347 5346 5346 5345